DW8241 Weather Reports


Display with metric or nautical units.
time (UTC)temp
F
wind
direction
speed
MPH
gust
MPH
rain 1hr
in
rain 24hr
in
rain mn
in
humidity
%
barometer
mb
20260505234533 39 345 0.0 13.0 0.00 0.00 0.00 61 1015.5
20260505233021 39 20 0.0 8.0 0.00 0.00 0.00 61 1015.5
20260505231521 39 20 0.0 10.0 0.00 0.00 0.00 61 1015.5
20260505230019 39 360 0.0 11.0 0.00 0.00 0.00 60 1015.4
20260505224519 39 335 0.0 11.0 0.00 0.00 0.00 60 1015.4
20260505223017 39 319 6.0 13.0 0.00 0.00 0.00 60 1015.3
20260505221519 40 309 6.0 15.0 0.00 0.00 0.00 60 1015.2
20260505220023 40 25 8.0 14.0 0.00 0.00 0.00 60 1015.3
20260505214521 39 351 4.0 12.0 0.00 0.01 0.00 61 1015.0
20260505213012 40 345 6.0 11.0 0.00 0.01 0.00 60 1015.1
20260505211512 40 320 1.0 10.0 0.00 0.01 0.00 59 1015.1
20260505210011 40 340 6.0 11.0 0.00 0.01 0.00 59 1015.1
20260505204509 40 309 2.0 11.0 0.00 0.01 0.00 59 1015.0
20260505203009 40 3 0.0 15.0 0.00 0.01 0.00 59 1015.1
20260505201509 40 321 2.0 12.0 0.00 0.01 0.00 60 1015.0
20260505200003 40 339 0.0 17.0 0.00 0.01 0.00 59 1014.9
20260505194507 39 335 1.0 13.0 0.00 0.01 0.00 59 1014.9
20260505193007 39 342 4.0 13.0 0.00 0.01 0.00 59 1014.9
20260505191502 40 360 3.0 14.0 0.00 0.01 0.00 60 1014.8
20260505184603 40 1 9.0 17.0 0.00 0.01 0.00 60 1014.6
20260505183057 40 41 3.0 15.0 0.00 0.01 0.00 60 1014.4
20260505181558 40 292 0.0 13.0 0.00 0.01 0.00 61 1014.4
20260505180058 39 345 7.0 16.0 0.00 0.01 0.00 62 1014.4
20260505174607 38 7 0.0 14.0 0.00 0.01 0.00 63 1014.5
20260505173047 37 358 8.0 16.0 0.00 0.01 0.00 63 1014.5
20260505171542 37 34 8.0 15.0 0.00 0.01 0.00 67 1014.4
20260505170057 36 10 0.0 15.0 0.00 0.01 0.00 66 1014.4
20260505164541 36 345 0.0 11.0 0.00 0.01 0.00 67 1014.2
20260505163040 36 323 7.0 14.0 0.00 0.01 0.00 70 1014.1
20260505161536 35 353 4.0 11.0 0.00 0.01 0.00 68 1014.2
20260505153035 34 344 0.0 0.0 0.00 0.01 0.00 75 1013.9
20260505151530 33 18 4.0 11.0 0.00 0.01 0.00 76 1013.8
20260505124511 32 329 0.0 0.0 0.00 0.01 0.00 81 1012.3
20260505123007 31 3 2.0 14.0 0.00 0.01 0.00 80 1012.0
20260505121502 32 6 0.0 0.0 0.00 0.01 0.00 84 1011.9
20260505120059 31 314 0.0 0.0 0.00 0.01 0.00 86 1011.7
20260505114614 31 339 0.0 0.0 0.00 0.01 0.00 86 1011.5
20260505113055 31 328 0.0 0.0 0.00 0.01 0.00 86 1011.4
20260505111605 31 328 0.0 0.0 0.00 0.01 0.00 85 1011.3
20260505101548 31 328 0.0 0.0 0.00 0.01 0.00 80 1011.1
20260505100050 32 8 0.0 0.0 0.00 0.01 0.00 79 1011.1
20260505094548 32 330 0.0 0.0 0.00 0.01 0.00 79 1011.1
20260505093044 32 1 0.0 0.0 0.00 0.01 0.00 79 1011.0
20260505091544 32 1 0.0 0.0 0.00 0.01 0.00 79 1011.1
20260505090049 32 340 0.0 0.0 0.00 0.01 0.00 80 1010.8
20260505084539 32 317 0.0 0.0 0.00 0.01 0.00 81 1010.7
20260505083046 32 271 0.0 0.0 0.00 0.01 0.00 80 1010.6
20260505081545 31 271 0.0 0.0 0.00 0.01 0.00 80 1010.5
20260505080039 31 271 0.0 0.0 0.00 0.01 0.00 81 1010.3
20260505074538 31 271 0.0 0.0 0.00 0.02 0.00 82 1010.3
20260505073032 31 271 0.0 0.0 0.00 0.02 0.00 83 1010.3
20260505071537 32 271 0.0 0.0 0.00 0.02 0.00 82 1010.3
20260505070035 32 8 0.0 0.0 0.00 0.02 0.00 82 1010.1
20260505064543 32 8 0.0 0.0 0.00 0.02 0.00 82 1009.9
20260505063027 32 8 0.0 0.0 0.00 0.02 0.00 83 1009.9
20260505061535 32 8 0.0 0.0 0.00 0.02 0.00 82 1010.0
20260505060027 32 11 0.0 0.0 0.00 0.02 0.00 81 1010.0
20260505054525 33 11 0.0 0.0 0.00 0.02 0.00 79 1009.9
20260505053022 33 11 0.0 0.0 0.00 0.02 0.00 77 1009.8
20260505051518 33 28 0.0 0.0 0.00 0.02 0.00 78 1009.7
20260505041522 33 336 0.0 0.0 0.00 0.02 0.02 77 1009.6
20260505040013 33 15 0.0 0.0 0.00 0.02 0.02 77 1009.4
20260505034510 33 14 0.0 0.0 0.00 0.02 0.02 79 1009.3
20260505033009 33 5 0.0 0.0 0.00 0.02 0.02 80 1009.2
20260505031508 32 41 0.0 0.0 0.00 0.02 0.02 83 1009.1
20260505030006 32 41 0.0 0.0 0.00 0.02 0.02 83 1008.9
20260505024512 32 39 0.0 0.0 0.00 0.02 0.02 82 1008.8
20260505023001 33 20 0.0 0.0 0.00 0.02 0.02 80 1008.5
20260505021558 34 35 0.0 0.0 0.00 0.02 0.02 80 1008.4
20260505020154 35 18 0.0 0.0 0.00 0.02 0.02 80 1008.0
20260505014554 35 27 0.0 0.0 0.00 0.02 0.02 87 1008.0
20260505013052 36 34 0.0 0.0 0.00 0.02 0.02 87 1007.7
20260505011551 36 23 0.0 0.0 0.00 0.02 0.02 87 1007.7
20260505010048 38 346 5.0 19.0 0.00 0.02 0.02 80 1007.7
20260505004544 41 16 2.0 13.0 0.00 0.02 0.02 74 1007.0
20260505003042 41 339 0.0 0.0 0.00 0.02 0.02 75 1006.9
20260505001549 41 268 0.0 0.0 0.00 0.02 0.02 78 1006.6
20260505000042 41 350 0.0 0.0 0.00 0.02 0.02 78 1006.6